| time (UTC) | temp C | wind direction | speed KPH | gust KPH | rain 1hr cm | rain 24hr cm | rain mn cm | humidity % | barometer mb |
| 20260507065709 | 6 | 22 | 1.6 | 1.6 | 0.00 | 0.05 | 0.05 | 88 | 1009.4 |
| 20260507065206 | 6 | 24 | 0.0 | 1.6 | 0.00 | 0.05 | 0.05 | 89 | 1009.1 |
| 20260507064704 | 6 | 340 | 0.0 | 0.0 | 0.00 | 0.05 | 0.05 | 89 | 1009.3 |
| 20260507064203 | 6 | 10 | 0.0 | 0.0 | 0.00 | 0.05 | 0.05 | 90 | 1009.3 |
| 20260507063659 | 6 | 19 | 0.0 | 0.0 | 0.00 | 0.05 | 0.05 | 89 | 1009.3 |
| 20260507063156 | 6 | 13 | 1.6 | 3.2 | 0.00 | 0.05 | 0.05 | 89 | 1009.3 |
| 20260507062653 | 6 | 352 | 0.0 | 0.0 | 0.00 | 0.05 | 0.05 | 89 | 1009.2 |
| 20260507062150 | 6 | 37 | 1.6 | 1.6 | 0.00 | 0.05 | 0.05 | 90 | 1009.1 |
| 20260507061648 | 6 | 50 | 3.2 | 3.2 | 0.00 | 0.05 | 0.05 | 90 | 1009.4 |
| 20260507061146 | 6 | 352 | 0.0 | 0.0 | 0.00 | 0.05 | 0.05 | 91 | 1009.1 |
| 20260507060644 | 6 | 4 | 0.0 | 0.0 | 0.00 | 0.05 | 0.05 | 90 | 1009.2 |
| 20260507060140 | 6 | 27 | 1.6 | 3.2 | 0.00 | 0.05 | 0.05 | 90 | 1009.3 |
| 20260507055635 | 6 | 357 | 0.0 | 0.0 | 0.00 | 0.05 | 0.05 | 90 | 1009.3 |
| 20260507055132 | 6 | 24 | 1.6 | 1.6 | 0.00 | 0.05 | 0.05 | 90 | 1009.3 |
| 20260507054628 | 6 | 45 | 1.6 | 3.2 | 0.00 | 0.05 | 0.05 | 90 | 1009.4 |
| 20260507054125 | 6 | 64 | 0.0 | 0.0 | 0.18 | 0.05 | 0.05 | 90 | 1009.5 |
| 20260507053623 | 6 | 337 | 0.0 | 0.0 | 0.18 | 0.05 | 0.05 | 90 | 1009.6 |
| 20260507053121 | 6 | 7 | 0.0 | 0.0 | 0.00 | 0.03 | 0.03 | 90 | 1009.5 |
| 20260507052619 | 6 | 6 | 0.0 | 0.0 | 0.00 | 0.03 | 0.03 | 89 | 1009.6 |
| 20260507052115 | 6 | 282 | 0.0 | 0.0 | 0.00 | 0.03 | 0.03 | 90 | 1009.5 |
| 20260507051613 | 6 | 48 | 1.6 | 3.2 | 0.00 | 0.03 | 0.03 | 89 | 1009.4 |
| 20260507051109 | 6 | 15 | 1.6 | 1.6 | 0.00 | 0.03 | 0.03 | 89 | 1009.3 |
| 20260507050606 | 6 | 18 | 3.2 | 3.2 | 0.00 | 0.03 | 0.03 | 89 | 1009.0 |
| 20260507045559 | 6 | 59 | 1.6 | 3.2 | 0.00 | 0.03 | 0.03 | 86 | 1009.3 |
| 20260507045056 | 6 | 57 | 1.6 | 1.6 | 0.00 | 0.03 | 0.03 | 85 | 1009.4 |
| 20260507044553 | 6 | 15 | 0.0 | 1.6 | 0.00 | 0.03 | 0.03 | 85 | 1009.2 |
| 20260507044050 | 6 | 358 | 0.0 | 0.0 | 0.00 | 0.03 | 0.03 | 86 | 1009.2 |
| 20260507043545 | 6 | 19 | 1.6 | 1.6 | 0.00 | 0.03 | 0.03 | 86 | 1009.2 |
| 20260507043043 | 6 | 0 | 1.6 | 3.2 | 0.00 | 0.03 | 0.03 | 85 | 1009.2 |
| 20260507042539 | 6 | 24 | 0.0 | 1.6 | 0.00 | 0.03 | 0.03 | 86 | 1009.3 |
| 20260507042034 | 6 | 17 | 3.2 | 3.2 | 0.00 | 0.03 | 0.03 | 86 | 1009.3 |
| 20260507041532 | 6 | 55 | 0.0 | 1.6 | 0.00 | 0.03 | 0.03 | 86 | 1009.1 |
| 20260507041029 | 6 | 9 | 1.6 | 3.2 | 0.00 | 0.03 | 0.03 | 86 | 1008.9 |
| 20260507040525 | 6 | 19 | 1.6 | 1.6 | 0.00 | 0.03 | 0.03 | 86 | 1009.0 |
| 20260507040021 | 6 | 347 | 0.0 | 0.0 | 0.00 | 0.03 | 0.03 | 86 | 1009.0 |
| 20260507035518 | 6 | 353 | 0.0 | 0.0 | 0.00 | 0.03 | 0.03 | 86 | 1009.0 |
| 20260507035014 | 6 | 359 | 0.0 | 0.0 | 0.00 | 0.03 | 0.03 | 86 | 1008.8 |
| 20260507034511 | 6 | 11 | 0.0 | 1.6 | 0.00 | 0.03 | 0.03 | 86 | 1008.7 |
| 20260507034009 | 6 | 35 | 3.2 | 3.2 | 0.00 | 0.03 | 0.03 | 86 | 1008.8 |
| 20260507033507 | 6 | 22 | 0.0 | 0.0 | 0.00 | 0.03 | 0.03 | 86 | 1008.7 |
| 20260507033004 | 6 | 17 | 0.0 | 1.6 | 0.00 | 0.03 | 0.03 | 85 | 1008.7 |
| 20260507032500 | 6 | 33 | 1.6 | 1.6 | 0.00 | 0.03 | 0.03 | 86 | 1008.5 |
| 20260507031956 | 6 | 352 | 0.0 | 1.6 | 0.00 | 0.03 | 0.03 | 85 | 1008.3 |
| 20260507031453 | 6 | 11 | 1.6 | 3.2 | 0.00 | 0.03 | 0.03 | 85 | 1008.2 |
| 20260507030950 | 6 | 20 | 1.6 | 4.8 | 0.00 | 0.03 | 0.03 | 86 | 1008.3 |
| 20260507030447 | 6 | 22 | 1.6 | 1.6 | 0.00 | 0.03 | 0.03 | 86 | 1008.5 |
| 20260507025944 | 6 | 356 | 0.0 | 0.0 | 0.00 | 0.03 | 0.03 | 85 | 1008.3 |
| 20260507025441 | 6 | 317 | 1.6 | 3.2 | 0.00 | 0.03 | 0.03 | 85 | 1008.6 |
| 20260507024939 | 6 | 2 | 1.6 | 3.2 | 0.00 | 0.03 | 0.03 | 86 | 1008.5 |
| 20260507024436 | 6 | 50 | 1.6 | 3.2 | 0.00 | 0.03 | 0.03 | 86 | 1008.5 |
| 20260507023932 | 6 | 53 | 0.0 | 1.6 | 0.00 | 0.03 | 0.03 | 86 | 1008.6 |
| 20260507023429 | 6 | 5 | 0.0 | 1.6 | 0.00 | 0.03 | 0.03 | 86 | 1008.7 |
| 20260507022926 | 6 | 25 | 0.0 | 0.0 | 0.00 | 0.03 | 0.03 | 86 | 1008.5 |
| 20260507022423 | 6 | 358 | 0.0 | 0.0 | 0.00 | 0.03 | 0.03 | 86 | 1008.4 |
| 20260507021919 | 6 | 34 | 4.8 | 4.8 | 0.00 | 0.03 | 0.03 | 86 | 1008.8 |
| 20260507021414 | 6 | 340 | 0.0 | 1.6 | 0.00 | 0.03 | 0.03 | 86 | 1008.8 |
| 20260507020912 | 6 | 9 | 1.6 | 3.2 | 0.00 | 0.03 | 0.03 | 86 | 1009.0 |
| 20260507020408 | 6 | 31 | 0.0 | 1.6 | 0.00 | 0.03 | 0.03 | 86 | 1008.9 |
| 20260507015905 | 6 | 33 | 0.0 | 0.0 | 0.00 | 0.03 | 0.03 | 86 | 1008.9 |
| 20260507015403 | 6 | 358 | 0.0 | 0.0 | 0.00 | 0.03 | 0.03 | 86 | 1009.1 |
| 20260507014900 | 6 | 19 | 0.0 | 1.6 | 0.00 | 0.03 | 0.03 | 86 | 1009.1 |
| 20260507014356 | 6 | 340 | 0.0 | 0.0 | 0.00 | 0.03 | 0.03 | 87 | 1008.7 |
| 20260507013853 | 6 | 33 | 1.6 | 1.6 | 0.00 | 0.03 | 0.03 | 87 | 1008.8 |
| 20260507013350 | 6 | 50 | 0.0 | 0.0 | 0.00 | 0.03 | 0.03 | 87 | 1008.6 |
| 20260507012848 | 6 | 24 | 0.0 | 0.0 | 0.00 | 0.03 | 0.03 | 87 | 1008.5 |
| 20260507012343 | 6 | 321 | 1.6 | 3.2 | 0.00 | 0.03 | 0.03 | 87 | 1008.5 |
| 20260507011841 | 6 | 345 | 0.0 | 1.6 | 0.00 | 0.03 | 0.03 | 88 | 1008.7 |
| 20260507011338 | 6 | 345 | 0.0 | 0.0 | 0.00 | 0.03 | 0.03 | 88 | 1008.7 |
| 20260507010832 | 6 | 11 | 0.0 | 1.6 | 0.00 | 0.03 | 0.03 | 88 | 1008.6 |
| 20260507010328 | 6 | 4 | 1.6 | 1.6 | 0.00 | 0.03 | 0.03 | 88 | 1008.4 |
| 20260507005825 | 6 | 354 | 0.0 | 0.0 | 0.00 | 0.03 | 0.03 | 89 | 1008.2 |
| 20260507005322 | 6 | 351 | 0.0 | 0.0 | 0.00 | 0.03 | 0.03 | 88 | 1008.5 |
| 20260507004819 | 6 | 7 | 0.0 | 0.0 | 0.00 | 0.03 | 0.03 | 88 | 1008.3 |
| 20260507004316 | 6 | 349 | 0.0 | 0.0 | 0.00 | 0.03 | 0.03 | 88 | 1008.4 |
| 20260507003813 | 6 | 1 | 0.0 | 0.0 | 0.00 | 0.03 | 0.03 | 88 | 1008.4 |
| 20260507003308 | 6 | 11 | 0.0 | 0.0 | 0.00 | 0.03 | 0.03 | 87 | 1008.5 |
| 20260507002803 | 6 | 34 | 0.0 | 0.0 | 0.00 | 0.03 | 0.03 | 87 | 1008.4 |
| 20260507002300 | 6 | 357 | 0.0 | 0.0 | 0.00 | 0.03 | 0.03 | 86 | 1008.3 |
| 20260507001757 | 6 | 71 | 3.2 | 3.2 | 0.00 | 0.03 | 0.03 | 86 | 1008.5 |
| 20260507001254 | 6 | 23 | 0.0 | 1.6 | 0.00 | 0.03 | 0.03 | 86 | 1008.7 |
| 20260507000750 | 6 | 24 | 1.6 | 3.2 | 0.00 | 0.03 | 0.03 | 86 | 1008.9 |
| 20260507000246 | 6 | 32 | 1.6 | 1.6 | 0.00 | 0.03 | 0.03 | 86 | 1008.7 |
| 20260506235743 | 6 | 21 | 0.0 | 1.6 | 0.00 | 0.03 | 0.03 | 87 | 1008.7 |
| 20260506235238 | 6 | 4 | 1.6 | 3.2 | 0.00 | 0.03 | 0.03 | 86 | 1008.7 |
| 20260506234736 | 6 | 51 | 3.2 | 3.2 | 0.00 | 0.03 | 0.03 | 87 | 1008.6 |
| 20260506234233 | 6 | 22 | 0.0 | 0.0 | 0.00 | 0.03 | 0.03 | 87 | 1008.7 |
| 20260506233730 | 6 | 3 | 0.0 | 0.0 | 0.00 | 0.03 | 0.03 | 87 | 1008.9 |
| 20260506233227 | 6 | 14 | 1.6 | 1.6 | 0.00 | 0.03 | 0.03 | 87 | 1008.9 |
| 20260506232724 | 6 | 350 | 0.0 | 0.0 | 0.00 | 0.03 | 0.03 | 87 | 1008.9 |
| 20260506232218 | 6 | 353 | 0.0 | 0.0 | 0.00 | 0.03 | 0.03 | 88 | 1008.4 |
| 20260506231716 | 6 | 19 | 1.6 | 1.6 | 0.00 | 0.03 | 0.03 | 88 | 1008.4 |
| 20260506231214 | 6 | 54 | 1.6 | 1.6 | 0.00 | 0.03 | 0.03 | 88 | 1008.3 |
| 20260506230710 | 6 | 32 | 0.0 | 0.0 | 0.00 | 0.03 | 0.03 | 89 | 1008.4 |
| 20260506230208 | 6 | 23 | 3.2 | 3.2 | 0.00 | 0.03 | 0.03 | 89 | 1008.4 |
| 20260506225704 | 6 | 4 | 0.0 | 1.6 | 0.00 | 0.03 | 0.03 | 90 | 1008.8 |
| 20260506225201 | 6 | 8 | 0.0 | 0.0 | 0.00 | 0.03 | 0.03 | 91 | 1008.8 |
| 20260506224657 | 6 | 2 | 0.0 | 0.0 | 0.00 | 0.03 | 0.03 | 91 | 1008.8 |
| 20260506224154 | 6 | 27 | 1.6 | 3.2 | 0.00 | 0.03 | 0.03 | 92 | 1008.9 |
| 20260506223650 | 6 | 15 | 0.0 | 0.0 | 0.00 | 0.03 | 0.03 | 92 | 1008.9 |
| 20260506223146 | 6 | 7 | 0.0 | 0.0 | 0.00 | 0.03 | 0.03 | 92 | 1008.6 |
| 20260506222643 | 6 | 11 | 0.0 | 0.0 | 0.00 | 0.03 | 0.03 | 92 | 1008.9 |
| 20260506222139 | 6 | 357 | 0.0 | 0.0 | 0.00 | 0.03 | 0.03 | 92 | 1009.1 |
| 20260506221637 | 6 | 347 | 0.0 | 1.6 | 0.00 | 0.03 | 0.03 | 92 | 1008.9 |
| 20260506221135 | 6 | 354 | 1.6 | 3.2 | 0.00 | 0.03 | 0.03 | 92 | 1009.1 |
| 20260506220632 | 6 | 39 | 0.0 | 1.6 | 0.00 | 0.03 | 0.03 | 92 | 1009.0 |
| 20260506220127 | 6 | 0 | 0.0 | 0.0 | 0.00 | 0.03 | 0.03 | 91 | 1008.9 |
| 20260506215624 | 6 | 3 | 0.0 | 0.0 | 0.00 | 0.03 | 0.03 | 91 | 1008.9 |
| 20260506215119 | 6 | 15 | 0.0 | 0.0 | 0.00 | 0.03 | 0.03 | 91 | 1008.8 |
| 20260506214616 | 6 | 67 | 1.6 | 3.2 | 0.00 | 0.03 | 0.03 | 91 | 1009.0 |
| 20260506214114 | 6 | 13 | 0.0 | 0.0 | 0.00 | 0.03 | 0.03 | 91 | 1008.9 |
| 20260506213612 | 6 | 342 | 0.0 | 0.0 | 0.00 | 0.03 | 0.03 | 91 | 1009.0 |
| 20260506213108 | 6 | 29 | 4.8 | 4.8 | 0.00 | 0.03 | 0.03 | 91 | 1008.8 |
| 20260506212606 | 6 | 31 | 0.0 | 1.6 | 0.00 | 0.03 | 0.03 | 91 | 1008.6 |
| 20260506212101 | 6 | 26 | 1.6 | 1.6 | 0.00 | 0.03 | 0.03 | 91 | 1008.6 |
| 20260506211557 | 6 | 33 | 3.2 | 4.8 | 0.13 | 0.03 | 0.03 | 91 | 1008.8 |
| 20260506211054 | 6 | 13 | 0.0 | 0.0 | 0.13 | 0.03 | 0.03 | 91 | 1008.8 |
| 20260506210550 | 6 | 25 | 0.0 | 0.0 | 0.00 | 0.00 | 0.00 | 91 | 1008.8 |
| 20260506210047 | 6 | 31 | 0.0 | 1.6 | 0.00 | 0.00 | 0.00 | 91 | 1008.9 |
| 20260506205543 | 6 | 358 | 0.0 | 1.6 | 0.00 | 0.64 | 0.64 | 90 | 1008.8 |
| 20260506205039 | 6 | 26 | 0.0 | 0.0 | 0.00 | 0.64 | 0.64 | 90 | 1008.9 |
| 20260506204537 | 6 | 6 | 0.0 | 0.0 | 0.00 | 0.64 | 0.64 | 91 | 1009.1 |
| 20260506204034 | 6 | 34 | 1.6 | 3.2 | 0.00 | 0.64 | 0.64 | 90 | 1009.2 |
| 20260506203532 | 6 | 20 | 1.6 | 3.2 | 0.00 | 0.64 | 0.64 | 91 | 1009.2 |
| 20260506203028 | 6 | 20 | 0.0 | 1.6 | 0.00 | 0.64 | 0.64 | 91 | 1009.1 |
| 20260506202526 | 6 | 6 | 1.6 | 1.6 | 0.00 | 0.64 | 0.64 | 91 | 1009.2 |
| 20260506202022 | 6 | 29 | 1.6 | 1.6 | 0.00 | 0.64 | 0.64 | 92 | 1009.1 |
| 20260506201520 | 6 | 45 | 0.0 | 1.6 | 0.00 | 0.64 | 0.64 | 92 | 1009.0 |
| 20260506201016 | 6 | 356 | 0.0 | 0.0 | 0.00 | 0.64 | 0.64 | 92 | 1009.0 |
| 20260506200512 | 6 | 6 | 1.6 | 1.6 | 0.00 | 0.64 | 0.64 | 92 | 1009.3 |
| 20260506200010 | 6 | 356 | 0.0 | 0.0 | 0.00 | 0.64 | 0.64 | 92 | 1009.3 |
| 20260506195507 | 6 | 3 | 0.0 | 0.0 | 0.00 | 0.64 | 0.64 | 92 | 1009.6 |
| 20260506195003 | 6 | 18 | 1.6 | 1.6 | 0.00 | 0.64 | 0.64 | 92 | 1009.5 |
| 20260506194500 | 6 | 40 | 1.6 | 3.2 | 0.00 | 0.64 | 0.64 | 92 | 1009.6 |
| 20260506193956 | 6 | 18 | 0.0 | 1.6 | 0.00 | 0.64 | 0.64 | 92 | 1009.6 |
| 20260506193454 | 6 | 36 | 1.6 | 4.8 | 0.00 | 0.64 | 0.64 | 92 | 1009.5 |
| 20260506192950 | 6 | 52 | 1.6 | 1.6 | 0.00 | 0.64 | 0.64 | 93 | 1009.5 |
| 20260506192448 | 6 | 28 | 0.0 | 0.0 | 0.00 | 0.64 | 0.64 | 93 | 1009.7 |
| 20260506191944 | 6 | 35 | 1.6 | 1.6 | 0.00 | 0.64 | 0.64 | 93 | 1009.6 |
| 20260506191441 | 6 | 4 | 1.6 | 1.6 | 0.00 | 0.64 | 0.64 | 93 | 1009.6 |
| 20260506190937 | 6 | 314 | 1.6 | 1.6 | 0.00 | 0.64 | 0.64 | 93 | 1009.6 |
| 20260506190434 | 6 | 25 | 1.6 | 1.6 | 0.00 | 0.64 | 0.64 | 93 | 1009.6 |
| 20260506185931 | 6 | 15 | 0.0 | 1.6 | 0.00 | 0.64 | 0.64 | 93 | 1009.7 |
| 20260506185428 | 6 | 43 | 0.0 | 0.0 | 0.18 | 0.64 | 0.64 | 93 | 1009.8 |
| 20260506184925 | 6 | 29 | 0.0 | 1.6 | 0.18 | 0.64 | 0.64 | 93 | 1009.6 |
| 20260506184422 | 6 | 1 | 0.0 | 0.0 | 0.00 | 0.61 | 0.61 | 93 | 1010.0 |
| 20260506183919 | 6 | 354 | 0.0 | 0.0 | 0.00 | 0.61 | 0.61 | 93 | 1009.9 |
| 20260506183414 | 6 | 11 | 0.0 | 0.0 | 0.00 | 0.61 | 0.61 | 93 | 1009.8 |
| 20260506182912 | 6 | 13 | 1.6 | 3.2 | 0.00 | 0.61 | 0.61 | 93 | 1009.8 |
| 20260506182409 | 6 | 3 | 1.6 | 1.6 | 0.00 | 0.61 | 0.61 | 93 | 1009.8 |
| 20260506181906 | 6 | 9 | 0.0 | 0.0 | 0.13 | 0.61 | 0.61 | 93 | 1009.7 |
| 20260506181404 | 6 | 355 | 0.0 | 0.0 | 0.13 | 0.61 | 0.61 | 93 | 1009.7 |
| 20260506180901 | 6 | 20 | 1.6 | 1.6 | 0.00 | 0.58 | 0.58 | 93 | 1009.6 |
| 20260506180357 | 6 | 351 | 0.0 | 0.0 | 0.00 | 0.58 | 0.58 | 93 | 1009.5 |
| 20260506175854 | 6 | 25 | 0.0 | 1.6 | 0.18 | 0.58 | 0.58 | 93 | 1009.5 |
| 20260506175350 | 6 | 25 | 1.6 | 1.6 | 0.18 | 0.58 | 0.58 | 93 | 1009.6 |
| 20260506174847 | 6 | 19 | 0.0 | 0.0 | 0.00 | 0.56 | 0.56 | 92 | 1009.7 |
| 20260506174345 | 6 | 22 | 3.2 | 3.2 | 0.18 | 0.56 | 0.56 | 92 | 1009.8 |
| 20260506173843 | 6 | 30 | 0.0 | 1.6 | 0.18 | 0.56 | 0.56 | 92 | 1009.6 |
| 20260506173339 | 6 | 18 | 0.0 | 1.6 | 0.13 | 0.53 | 0.53 | 92 | 1009.8 |
| 20260506172836 | 6 | 337 | 0.0 | 0.0 | 0.13 | 0.53 | 0.53 | 92 | 1009.8 |
| 20260506172333 | 6 | 340 | 0.0 | 0.0 | 0.18 | 0.51 | 0.51 | 92 | 1010.0 |
| 20260506171830 | 6 | 335 | 0.0 | 0.0 | 0.30 | 0.51 | 0.51 | 91 | 1010.0 |
| 20260506171327 | 6 | 335 | 0.0 | 0.0 | 0.30 | 0.48 | 0.48 | 91 | 1010.1 |
| 20260506170825 | 6 | 309 | 0.0 | 0.0 | 0.30 | 0.46 | 0.46 | 90 | 1010.0 |
| 20260506170320 | 6 | 334 | 0.0 | 0.0 | 0.13 | 0.43 | 0.43 | 90 | 1010.0 |
| 20260506165820 | 6 | 347 | 0.0 | 0.0 | 0.18 | 0.41 | 0.41 | 89 | 1010.1 |
| 20260506165317 | 6 | 340 | 0.0 | 0.0 | 0.30 | 0.41 | 0.41 | 90 | 1009.9 |
| 20260506164813 | 6 | 351 | 1.6 | 1.6 | 0.13 | 0.38 | 0.38 | 89 | 1009.8 |
| 20260506164310 | 6 | 349 | 0.0 | 0.0 | 0.30 | 0.38 | 0.38 | 88 | 1009.9 |
| 20260506163807 | 6 | 24 | 0.0 | 0.0 | 0.18 | 0.36 | 0.36 | 87 | 1009.5 |
| 20260506163302 | 6 | 5 | 0.0 | 0.0 | 0.13 | 0.33 | 0.33 | 87 | 1009.7 |
| 20260506162758 | 6 | 25 | 0.0 | 1.6 | 0.30 | 0.33 | 0.33 | 86 | 1009.9 |
| 20260506162256 | 6 | 347 | 0.0 | 0.0 | 0.30 | 0.30 | 0.30 | 88 | 1009.9 |
| 20260506161753 | 7 | 352 | 0.0 | 0.0 | 0.30 | 0.28 | 0.28 | 86 | 1010.2 |
| 20260506161250 | 7 | 338 | 0.0 | 0.0 | 0.36 | 0.25 | 0.25 | 85 | 1010.3 |
| 20260506160748 | 6 | 44 | 1.6 | 3.2 | 0.30 | 0.23 | 0.23 | 86 | 1010.3 |
| 20260506160244 | 6 | 338 | 0.0 | 0.0 | 0.30 | 0.20 | 0.20 | 86 | 1010.2 |
| 20260506155743 | 6 | 328 | 0.0 | 0.0 | 0.30 | 0.18 | 0.18 | 85 | 1010.3 |
| 20260506155239 | 6 | 351 | 0.0 | 0.0 | 0.30 | 0.15 | 0.15 | 83 | 1010.1 |
| 20260506153352 | 7 | 5 | 1.6 | 3.2 | 0.30 | 0.05 | 0.05 | 71 | 1010.6 |
| 20260506152849 | 8 | 358 | 1.6 | 1.6 | 0.18 | 0.03 | 0.03 | 68 | 1010.6 |
| 20260506152346 | 8 | 309 | 0.0 | 0.0 | 0.00 | 0.00 | 0.00 | 62 | 1010.6 |
| 20260506151845 | 8 | 308 | 0.0 | 0.0 | 0.00 | 0.00 | 0.00 | 59 | 1010.4 |
| 20260506151341 | 8 | 348 | 0.0 | 0.0 | 0.00 | 0.00 | 0.00 | 53 | 1010.3 |
| 20260506150839 | 8 | 17 | 0.0 | 0.0 | 0.00 | 0.00 | 0.00 | 47 | 1010.1 |
| 20260506150335 | 9 | 11 | 0.0 | 0.0 | 0.00 | 0.00 | 0.00 | 46 | 1009.8 |
| 20260506145832 | 9 | 359 | 0.0 | 0.0 | 0.00 | 0.00 | 0.00 | 44 | 1009.9 |
| 20260506145328 | 10 | 3 | 1.6 | 3.2 | 0.00 | 0.00 | 0.00 | 40 | 1010.0 |
| 20260506144826 | 10 | 302 | 0.0 | 0.0 | 0.00 | 0.00 | 0.00 | 41 | 1010.2 |
| 20260506144322 | 10 | 60 | 1.6 | 1.6 | 0.00 | 0.00 | 0.00 | 37 | 1010.0 |
| 20260506143821 | 10 | 339 | 0.0 | 0.0 | 0.00 | 0.00 | 0.00 | 36 | 1010.0 |
| 20260506143317 | 10 | 34 | 0.0 | 1.6 | 0.00 | 0.00 | 0.00 | 36 | 1010.1 |
| 20260506142816 | 10 | 45 | 3.2 | 3.2 | 0.00 | 0.00 | 0.00 | 36 | 1009.6 |
| 20260506142313 | 10 | 15 | 0.0 | 1.6 | 0.00 | 0.00 | 0.00 | 35 | 1009.8 |
| 20260506141812 | 10 | 301 | 3.2 | 8.0 | 0.00 | 0.00 | 0.00 | 37 | 1009.6 |
| 20260506141309 | 10 | 17 | 0.0 | 0.0 | 0.00 | 0.00 | 0.00 | 37 | 1009.3 |
| 20260506140807 | 10 | 353 | 1.6 | 1.6 | 0.00 | 0.00 | 0.00 | 38 | 1009.3 |
| 20260506140303 | 10 | 236 | 0.0 | 1.6 | 0.00 | 0.00 | 0.00 | 40 | 1009.3 |
| 20260506135801 | 10 | 11 | 1.6 | 3.2 | 0.00 | 0.00 | 0.00 | 40 | 1009.3 |
| 20260506135257 | 10 | 8 | 1.6 | 1.6 | 0.00 | 0.00 | 0.00 | 39 | 1009.1 |
| 20260506134754 | 10 | 54 | 0.0 | 1.6 | 0.00 | 0.00 | 0.00 | 40 | 1009.5 |
| 20260506134250 | 10 | 13 | 1.6 | 1.6 | 0.00 | 0.00 | 0.00 | 42 | 1009.8 |
| 20260506133747 | 10 | 18 | 0.0 | 1.6 | 0.00 | 0.00 | 0.00 | 42 | 1009.5 |
| 20260506133244 | 10 | 335 | 0.0 | 0.0 | 0.00 | 0.00 | 0.00 | 42 | 1009.6 |
| 20260506132741 | 10 | 253 | 1.6 | 4.8 | 0.00 | 0.00 | 0.00 | 44 | 1009.7 |
| 20260506132238 | 10 | 72 | 0.0 | 0.0 | 0.00 | 0.00 | 0.00 | 45 | 1009.7 |
| 20260506131736 | 10 | 359 | 1.6 | 1.6 | 0.00 | 0.00 | 0.00 | 48 | 1009.8 |
| 20260506131231 | 11 | 33 | 3.2 | 3.2 | 0.00 | 0.00 | 0.00 | 46 | 1009.7 |
| 20260506130729 | 11 | 338 | 0.0 | 0.0 | 0.00 | 0.00 | 0.00 | 46 | 1010.1 |
| 20260506130225 | 11 | 26 | 0.0 | 0.0 | 0.00 | 0.00 | 0.00 | 45 | 1010.2 |
| 20260506125724 | 11 | 16 | 3.2 | 8.0 | 0.00 | 0.00 | 0.00 | 45 | 1010.4 |
| 20260506125221 | 11 | 351 | 0.0 | 0.0 | 0.00 | 0.00 | 0.00 | 45 | 1010.2 |
| 20260506124719 | 11 | 291 | 0.0 | 1.6 | 0.00 | 0.00 | 0.00 | 46 | 1010.0 |
| 20260506124217 | 11 | 348 | 1.6 | 1.6 | 0.00 | 0.00 | 0.00 | 44 | 1010.2 |
| 20260506123714 | 11 | 87 | 3.2 | 3.2 | 0.00 | 0.00 | 0.00 | 43 | 1010.4 |
| 20260506123213 | 11 | 250 | 1.6 | 1.6 | 0.00 | 0.00 | 0.00 | 42 | 1010.5 |
| 20260506122709 | 11 | 197 | 1.6 | 3.2 | 0.00 | 0.00 | 0.00 | 43 | 1010.9 |
| 20260506122207 | 12 | 6 | 0.0 | 1.6 | 0.00 | 0.00 | 0.00 | 43 | 1010.7 |
| 20260506121704 | 11 | 342 | 1.6 | 1.6 | 0.00 | 0.00 | 0.00 | 42 | 1010.9 |
| 20260506121200 | 12 | 122 | 0.0 | 0.0 | 0.00 | 0.00 | 0.00 | 41 | 1011.0 |
| 20260506120658 | 12 | 348 | 0.0 | 0.0 | 0.00 | 0.00 | 0.00 | 40 | 1011.0 |
| 20260506120156 | 12 | 355 | 0.0 | 1.6 | 0.00 | 0.00 | 0.00 | 41 | 1010.8 |
| 20260506115654 | 13 | 8 | 3.2 | 3.2 | 0.00 | 0.00 | 0.00 | 40 | 1010.9 |
| 20260506115152 | 13 | 12 | 0.0 | 0.0 | 0.00 | 0.00 | 0.00 | 42 | 1010.8 |
| 20260506114649 | 13 | 337 | 0.0 | 0.0 | 0.00 | 0.00 | 0.00 | 41 | 1010.7 |
| 20260506114146 | 14 | 336 | 0.0 | 1.6 | 0.00 | 0.00 | 0.00 | 40 | 1010.7 |
| 20260506113645 | 13 | 43 | 8.0 | 14.5 | 0.00 | 0.00 | 0.00 | 42 | 1010.9 |
| 20260506113142 | 13 | 271 | 1.6 | 1.6 | 0.00 | 0.00 | 0.00 | 43 | 1011.0 |
| 20260506112637 | 13 | 220 | 1.6 | 3.2 | 0.00 | 0.00 | 0.00 | 42 | 1010.7 |
| 20260506112136 | 13 | 129 | 1.6 | 3.2 | 0.00 | 0.00 | 0.00 | 43 | 1010.8 |
| 20260506111633 | 13 | 1 | 1.6 | 1.6 | 0.00 | 0.00 | 0.00 | 42 | 1010.8 |
| 20260506111131 | 13 | 44 | 1.6 | 1.6 | 0.00 | 0.00 | 0.00 | 42 | 1010.6 |
| 20260506110628 | 14 | 354 | 0.0 | 0.0 | 0.00 | 0.00 | 0.00 | 40 | 1010.5 |
| 20260506110125 | 15 | 1 | 3.2 | 4.8 | 0.00 | 0.00 | 0.00 | 39 | 1010.8 |
| 20260506105622 | 14 | 332 | 0.0 | 0.0 | 0.00 | 0.00 | 0.00 | 40 | 1010.6 |
| 20260506105119 | 13 | 26 | 1.6 | 3.2 | 0.00 | 0.00 | 0.00 | 41 | 1010.4 |
| 20260506104617 | 13 | 66 | 1.6 | 3.2 | 0.00 | 0.00 | 0.00 | 41 | 1010.7 |
| 20260506104114 | 13 | 11 | 4.8 | 4.8 | 0.00 | 0.00 | 0.00 | 39 | 1010.7 |
| 20260506103611 | 13 | 24 | 0.0 | 1.6 | 0.00 | 0.00 | 0.00 | 41 | 1010.5 |
| 20260506103108 | 14 | 310 | 1.6 | 1.6 | 0.00 | 0.00 | 0.00 | 40 | 1010.6 |
| 20260506102606 | 13 | 350 | 1.6 | 1.6 | 0.00 | 0.00 | 0.00 | 41 | 1010.6 |
| 20260506102103 | 13 | 25 | 1.6 | 1.6 | 0.00 | 0.00 | 0.00 | 39 | 1010.7 |
| 20260506101600 | 13 | 355 | 1.6 | 1.6 | 0.00 | 0.00 | 0.00 | 40 | 1010.6 |
| 20260506101057 | 13 | 289 | 0.0 | 0.0 | 0.00 | 0.00 | 0.00 | 40 | 1010.8 |
| 20260506100555 | 13 | 353 | 0.0 | 0.0 | 0.00 | 0.00 | 0.00 | 39 | 1010.8 |
| 20260506100053 | 13 | 236 | 3.2 | 4.8 | 0.00 | 0.00 | 0.00 | 38 | 1011.0 |
| 20260506095551 | 14 | 353 | 0.0 | 1.6 | 0.00 | 0.00 | 0.00 | 38 | 1010.7 |
| 20260506095048 | 14 | 45 | 0.0 | 0.0 | 0.00 | 0.00 | 0.00 | 38 | 1010.9 |
| 20260506094545 | 14 | 71 | 0.0 | 0.0 | 0.00 | 0.00 | 0.00 | 37 | 1010.7 |
| 20260506094043 | 14 | 69 | 0.0 | 1.6 | 0.00 | 0.00 | 0.00 | 38 | 1010.8 |
| 20260506093541 | 13 | 90 | 1.6 | 1.6 | 0.00 | 0.00 | 0.00 | 39 | 1010.9 |
| 20260506093038 | 13 | 5 | 0.0 | 0.0 | 0.00 | 0.00 | 0.00 | 40 | 1010.7 |
| 20260506092536 | 13 | 27 | 0.0 | 1.6 | 0.00 | 0.00 | 0.00 | 40 | 1010.9 |
| 20260506092033 | 13 | 44 | 3.2 | 4.8 | 0.00 | 0.00 | 0.00 | 39 | 1011.2 |
| 20260506091531 | 13 | 16 | 0.0 | 1.6 | 0.00 | 0.00 | 0.00 | 40 | 1010.9 |
| 20260506091028 | 13 | 301 | 1.6 | 3.2 | 0.00 | 0.00 | 0.00 | 41 | 1011.1 |
| 20260506090526 | 13 | 298 | 1.6 | 1.6 | 0.00 | 0.00 | 0.00 | 41 | 1011.1 |
| 20260506090022 | 13 | 28 | 0.0 | 1.6 | 0.00 | 0.00 | 0.00 | 41 | 1011.1 |
| 20260506085519 | 13 | 304 | 1.6 | 1.6 | 0.00 | 0.00 | 0.00 | 41 | 1011.2 |
| 20260506085015 | 13 | 345 | 0.0 | 0.0 | 0.00 | 0.00 | 0.00 | 43 | 1011.3 |
| 20260506084512 | 12 | 44 | 1.6 | 3.2 | 0.00 | 0.00 | 0.00 | 38 | 1011.3 |
| 20260506084008 | 13 | 3 | 0.0 | 1.6 | 0.00 | 0.00 | 0.00 | 38 | 1011.5 |
| 20260506083506 | 13 | 73 | 1.6 | 3.2 | 0.00 | 0.00 | 0.00 | 42 | 1011.4 |
| 20260506083003 | 12 | 0 | 1.6 | 1.6 | 0.00 | 0.00 | 0.00 | 40 | 1011.3 |
| 20260506082500 | 12 | 73 | 0.0 | 1.6 | 0.00 | 0.00 | 0.00 | 41 | 1011.1 |
| 20260506081955 | 12 | 33 | 4.8 | 4.8 | 0.00 | 0.00 | 0.00 | 42 | 1011.5 |
| 20260506081454 | 12 | 22 | 3.2 | 3.2 | 0.00 | 0.00 | 0.00 | 40 | 1011.4 |
| 20260506080951 | 12 | 3 | 0.0 | 0.0 | 0.00 | 0.00 | 0.00 | 43 | 1011.4 |
| 20260506080448 | 12 | 41 | 0.0 | 0.0 | 0.00 | 0.00 | 0.00 | 43 | 1011.4 |
| 20260506073431 | 12 | 344 | 0.0 | 0.0 | 0.00 | 0.00 | 0.00 | 45 | 1011.4 |
| 20260506072929 | 11 | 359 | 3.2 | 3.2 | 0.00 | 0.00 | 0.00 | 46 | 1011.6 |
| 20260506072426 | 11 | 358 | 0.0 | 1.6 | 0.00 | 0.00 | 0.00 | 46 | 1011.6 |
| 20260506071924 | 11 | 97 | 3.2 | 8.0 | 0.00 | 0.00 | 0.00 | 46 | 1011.4 |
| 20260506071422 | 11 | 1 | 0.0 | 1.6 | 0.00 | 0.00 | 0.00 | 47 | 1011.4 |
| 20260506070918 | 11 | 313 | 0.0 | 0.0 | 0.00 | 0.00 | 0.00 | 47 | 1011.4 |
| 20260506070415 | 11 | 89 | 1.6 | 1.6 | 0.00 | 0.00 | 0.00 | 50 | 1011.7 |